Weather History for Frankfort, KY

Change the Weather History Date:

Sunday, July 21, 2013

  Actual Average Record
Temperature  
Mean Temperature 78 °F 76 °F  
Max Temperature 86 °F 87 °F 104 °F (1934)
Min Temperature 70 °F 66 °F 51 °F (1944)
Degree Days  
Heating Degree Days 0 0  
Month to date heating degree days 0 0  
Since 1 June heating degree days 2 10  
Since 1 July heating degree days 0 0  
Cooling Degree Days 13 11  
Month to date cooling degree days 233 231  
Year to date cooling degree days 593 566  
Since 1 June cooling degree days 474 467  
Growing Degree Days 28 (Base 50)    
Moisture  
Dew Point 70 °F    
Average Humidity 77    
Maximum Humidity 93    
Minimum Humidity 61    
Precipitation  
Precipitation 0.24 in 0.16 in 2.20 in (1917)
Month to date precipitation 6.66 2.96  
Year to date precipitation 31.84 26.52  
Sea Level Pressure  
Sea Level Pressure 29.93 in    
Wind  
Wind Speed 3 mph (West)    
Max Wind Speed 13 mph    
Max Gust Speed 21 mph    
Visibility 8 miles    
Events Rain , Thunderstorm    
T = Trace of Precipitation, MM = Missing Value Source: NWS Daily Summary

Daily Weather History Graph

Daily Weather History Graph

Search for Another Location

Airport:

Trip Planner

Search our weather history database for the weather conditions in past years. The results will help you decide how hot, cold, wet, or windy it might be!

Date:

Astronomy

Jul. 21, 2013 Rise Set
Actual Time 6:33 AM EDT 8:58 PM EDT
Civil Twilight 6:03 AM EDT 9:28 PM EDT
Nautical Twilight 5:25 AM EDT 10:05 PM EDT
Astronomical Twilight 4:44 AM EDT 10:46 PM EDT
Moon 7:56 PM EDT (7/21) 5:17 AM EDT (7/21)
Length of Visible Light 15h 25m
Length of Day
14h 25m
Waxing Gibbous, 98% of the Moon is Illuminated
Jul 21
Waxing Gibbous
Jul 22
Full
Jul 29
Last Quarter
Aug 6
New
Aug 14
First Quarter

Hourly Weather History & Observations

Time (EDT) Temp. Heat Index Dew Point Humidity Pressure Visibility Wind Dir Wind Speed Gust Speed Precip Events Conditions
12:53 AM 75.9 °F - 72.0 °F 87% 29.90 in 10.0 mi Calm Calm - N/A   Clear
1:53 AM 73.9 °F - 69.1 °F 85% 29.91 in 10.0 mi North 5.8 mph - N/A   Scattered Clouds
2:53 AM 73.0 °F - 69.1 °F 87% 29.90 in 10.0 mi Calm Calm - N/A   Scattered Clouds
3:53 AM 72.0 °F - 69.1 °F 91% 29.90 in 10.0 mi SW 3.5 mph - N/A   Scattered Clouds
4:53 AM 71.1 °F - 69.1 °F 93% 29.90 in 10.0 mi Calm Calm - N/A   Partly Cloudy
5:53 AM 71.1 °F - 69.1 °F 93% 29.91 in 10.0 mi NNW 5.8 mph - N/A   Partly Cloudy
6:19 AM 71.6 °F - 69.8 °F 94% 29.94 in 9.0 mi NNW 4.6 mph - 0.00 in Thunderstorm Mostly Cloudy
6:35 AM 71.6 °F - 69.8 °F 94% 29.95 in 1.5 mi Calm Calm - 0.11 in Rain , Thunderstorm Thunderstorms and Rain
6:40 AM 69.8 °F - 69.8 °F 100% 29.95 in 0.8 mi Calm Calm - 0.19 in Rain , Thunderstorm Heavy Thunderstorms and Rain
6:45 AM 69.8 °F - 69.8 °F 100% 29.95 in 1.0 mi Calm Calm - 0.21 in Rain , Thunderstorm Heavy Rain
6:47 AM 69.8 °F - 69.8 °F 100% 29.95 in 1.2 mi Calm Calm - 0.21 in Rain Rain
6:53 AM 70.0 °F - 70.0 °F 100% 29.93 in 3.0 mi NW 5.8 mph - 0.22 in Rain Light Rain
7:01 AM 69.8 °F - 69.8 °F 100% 29.96 in 5.0 mi NW 4.6 mph - 0.00 in   Mostly Cloudy
7:33 AM 71.6 °F - 69.8 °F 94% 29.97 in 5.0 mi Calm Calm - 0.00 in   Overcast
7:53 AM 71.1 °F - 70.0 °F 96% 29.95 in 7.0 mi Calm Calm - 0.00 in   Overcast
8:53 AM 73.0 °F - 70.0 °F 90% 29.96 in 8.0 mi Calm Calm - N/A   Overcast
9:53 AM 75.0 °F - 72.0 °F 90% 29.96 in 9.0 mi Calm Calm - N/A   Clear
10:08 AM 75.2 °F - 71.6 °F 89% 29.98 in 10.0 mi Calm Calm - N/A   Partly Cloudy
10:53 AM 75.9 °F - 71.1 °F 85% 29.96 in 10.0 mi Variable 3.5 mph - N/A   Partly Cloudy
11:53 AM 79.0 °F - 71.1 °F 77% 29.96 in 10.0 mi SW 5.8 mph - N/A   Mostly Cloudy
12:53 PM 81.0 °F 85.2 °F 72.0 °F 74% 29.96 in 10.0 mi Variable 3.5 mph - N/A   Partly Cloudy
1:14 PM 80.6 °F 84.6 °F 71.6 °F 74% 29.98 in 10.0 mi WSW 3.5 mph - N/A   Mostly Cloudy
1:26 PM 80.6 °F 84.6 °F 71.6 °F 74% 29.98 in 10.0 mi West 4.6 mph - N/A   Scattered Clouds
1:53 PM 81.0 °F 84.9 °F 71.1 °F 72% 29.95 in 10.0 mi Variable 3.5 mph - N/A   Mostly Cloudy
2:03 PM 82.4 °F 87.2 °F 71.6 °F 70% 29.97 in 10.0 mi Variable 4.6 mph - N/A   Mostly Cloudy
2:53 PM 82.9 °F 87.0 °F 70.0 °F 65% 29.93 in 10.0 mi Calm Calm - N/A   Scattered Clouds
3:53 PM 82.9 °F 87.5 °F 71.1 °F 67% 29.91 in 10.0 mi NW 4.6 mph - N/A   Clear
4:53 PM 82.9 °F 87.0 °F 70.0 °F 65% 29.91 in 10.0 mi NW 3.5 mph - N/A   Scattered Clouds
5:53 PM 86.0 °F 91.5 °F 71.1 °F 61% 29.88 in 10.0 mi Calm Calm - N/A   Mostly Cloudy
6:53 PM 84.0 °F 88.4 °F 70.0 °F 63% 29.88 in 10.0 mi South 3.5 mph - N/A   Clear
7:53 PM 82.0 °F 86.3 °F 71.1 °F 69% 29.87 in 10.0 mi ESE 3.5 mph - N/A   Clear
8:53 PM 79.0 °F - 71.1 °F 77% 29.89 in 10.0 mi Calm Calm - N/A   Clear
9:53 PM 78.1 °F - 70.0 °F 76% 29.90 in 10.0 mi South 5.8 mph - N/A   Mostly Cloudy
10:53 PM 78.1 °F - 72.0 °F 81% 29.91 in 10.0 mi SSW 4.6 mph - N/A   Overcast
11:53 PM 73.0 °F - 71.1 °F 93% 29.91 in 10.0 mi Calm Calm - 0.02 in   Partly Cloudy